Theta_e
328 332 335 337 337 334 335 337 337 341 344 345 346 345 345 346 343 341 351 357 352 349 350 347 350 357 358 357 356 355 353 353 352 352 352 352 352 353 354 352 350 350 351 350 349 348 348 348 348 348 348 348 348 349 349 350 351 352 352 351 350 351 352 353 353 351 351 351 351 352 354 354 354 352 352 352 352 352 352 351 352 353 353 354 354 353 353
330 329 331 336 338 336 338 340 340 342 345 345 346 347 346 347 348 348 352 355 352 347 346 347 350 352 353 353 351 351 352 352 351 350 350 351 352 353 353 352 350 349 350 349 347 348 347 346 347 348 348 348 349 349 349 349 350 350 350 350 350 351 351 351 351 351 351 351 352 354 355 354 353 351 350 350 350 350 350 350 351 353 353 353 353 351 352
333 331 332 335 336 336 337 340 343 344 346 346 347 347 348 349 349 350 353 355 351 346 344 346 348 350 351 351 348 349 350 350 349 350 349 349 351 351 350 350 349 349 350 348 346 347 347 346 347 348 348 349 349 350 350 350 350 351 351 351 352 352 352 352 352 352 352 352 354 355 355 354 353 352 351 349 348 349 350 350 351 352 352 352 352 352 352
330 329 332 334 335 334 333 336 341 345 347 347 348 347 347 348 349 350 353 354 351 347 346 347 347 348 351 350 348 349 349 348 348 349 349 348 349 349 348 348 349 349 350 348 346 346 347 347 347 347 348 349 348 349 350 349 349 351 352 353 354 354 354 355 354 354 354 355 355 355 355 355 355 354 352 350 349 348 349 349 349 350 350 350 350 351 351
328 329 331 332 335 339 339 336 336 343 347 346 346 347 346 344 345 348 350 349 347 346 347 348 347 348 349 348 347 349 350 349 348 349 349 348 347 347 347 347 347 347 347 346 345 345 346 347 347 347 347 347 347 348 348 348 348 348 349 351 352 353 355 355 353 353 354 355 354 353 354 354 354 356 355 353 352 350 349 350 349 349 349 348 348 348 348
328 336 340 338 339 343 343 337 334 342 347 346 346 347 345 343 344 345 345 344 344 346 347 347 348 348 347 346 346 348 349 349 349 349 348 347 346 346 346 346 345 344 344 344 344 345 345 346 347 348 348 347 348 350 349 348 348 347 348 349 349 350 352 351 351 350 349 349 349 349 350 349 350 354 356 356 355 353 352 351 350 349 349 348 348 348 348
331 341 347 343 338 340 342 337 335 340 343 343 345 345 343 344 343 343 344 344 344 345 345 346 346 344 342 342 343 346 347 347 348 348 346 346 346 346 345 345 344 343 343 344 344 345 345 346 346 347 348 347 348 349 349 348 347 347 348 349 349 350 351 350 349 348 347 347 349 350 351 350 350 351 354 355 356 355 355 353 352 351 350 350 350 350 349
332 339 344 341 336 337 342 340 336 337 339 342 347 346 343 343 343 343 345 344 343 344 344 344 344 342 340 341 341 342 344 345 345 346 346 346 344 344 345 344 343 343 344 344 344 345 345 344 344 345 346 346 346 346 345 345 345 344 345 346 347 349 349 349 349 349 350 350 351 350 351 351 351 351 351 353 354 354 355 355 354 353 352 352 352 351 350
335 339 340 340 338 338 342 341 336 336 338 341 347 348 343 341 343 344 344 344 343 344 344 344 343 342 342 343 341 340 341 341 341 342 343 343 343 343 343 343 343 343 344 344 344 344 344 344 343 343 343 343 343 343 342 342 342 342 342 342 343 345 346 346 346 347 349 350 351 350 350 349 349 348 347 349 352 353 354 355 355 355 354 353 352 351 350
340 343 340 339 340 340 344 348 343 336 335 339 346 348 343 341 343 343 342 343 344 344 345 344 343 344 346 346 343 341 340 340 340 340 339 339 340 341 341 342 343 343 344 344 344 344 344 343 342 342 342 342 341 341 342 341 340 340 339 339 340 341 342 342 342 344 346 348 349 349 349 349 349 349 348 349 351 353 354 355 355 353 352 351 351 351 350
337 342 341 339 338 340 346 352 346 336 333 336 343 346 344 342 343 343 341 341 343 343 344 343 343 346 348 345 343 342 341 338 338 339 339 338 338 339 340 340 340 340 340 340 341 342 342 341 340 340 339 339 338 338 339 339 339 340 339 339 340 340 339 340 341 341 343 344 345 345 346 347 348 349 350 351 352 353 353 354 352 351 349 348 348 348 348
339 343 343 338 338 340 342 342 341 337 335 335 339 343 344 341 341 343 342 341 342 341 340 340 343 346 345 343 343 342 339 337 336 336 337 335 335 336 337 337 337 336 336 335 336 338 337 336 336 336 336 336 335 334 335 336 338 339 339 339 340 340 340 340 340 340 340 341 343 343 344 345 346 346 347 349 349 350 351 352 350 348 346 346 347 347 346
341 343 341 336 339 343 339 336 339 340 338 337 337 340 342 341 341 342 341 340 341 341 339 340 343 345 342 341 343 340 336 335 334 334 334 333 331 332 333 333 333 333 333 332 332 333 333 333 332 332 333 332 331 330 332 334 335 337 337 337 338 339 339 339 339 340 340 340 341 341 342 342 343 343 344 345 345 346 348 348 347 345 342 343 344 345 344
336 343 343 339 341 343 338 337 341 341 337 338 339 339 342 344 342 340 339 337 337 338 339 339 341 342 339 339 341 341 338 335 332 331 331 330 328 329 330 330 331 331 331 331 331 331 331 331 331 331 330 329 328 328 328 329 331 334 335 336 336 336 337 339 340 340 340 340 340 339 340 340 341 341 341 342 342 343 344 344 344 342 339 338 338 338 338
337 343 344 344 345 343 336 337 343 342 339 340 341 341 344 345 342 338 337 336 335 337 338 338 338 340 340 339 340 341 341 338 331 326 327 327 326 328 328 328 329 329 329 330 330 330 330 330 330 331 330 329 330 330 329 328 329 330 332 334 335 336 336 337 337 337 338 339 339 338 337 338 338 339 340 340 340 341 341 341 340 338 337 336 335 334 333
341 343 342 345 346 341 338 340 343 342 340 342 344 343 343 344 343 340 338 336 335 336 339 339 338 339 340 341 341 341 343 342 333 325 324 325 325 326 327 328 328 328 328 329 328 328 329 329 329 330 330 329 329 329 329 330 330 329 330 331 333 334 334 334 334 334 336 338 339 338 337 337 336 336 336 336 337 337 338 338 337 335 334 334 333 332 330
340 343 340 339 338 336 337 341 342 341 340 342 343 343 343 344 343 342 341 337 335 336 338 338 339 339 339 341 343 342 344 343 334 325 324 324 325 326 326 326 327 327 327 327 327 327 327 326 326 328 329 328 327 326 326 328 329 329 329 329 330 332 333 333 333 333 333 335 337 337 337 336 336 336 336 335 335 334 333 333 332 331 331 330 330 329 328
336 338 334 334 335 335 336 339 340 341 341 340 340 341 343 343 342 342 341 338 336 338 338 338 339 339 339 341 342 343 345 344 334 325 323 324 324 325 326 326 326 327 327 327 327 326 325 325 324 325 325 326 326 326 325 325 325 325 325 326 327 328 330 332 333 332 332 332 333 333 332 332 333 335 336 335 334 334 333 331 330 329 328 328 328 327 328
338 336 331 332 335 335 336 338 339 340 341 340 340 341 342 342 342 342 340 338 338 339 339 340 341 340 340 342 342 343 346 344 334 325 324 325 324 324 325 326 326 326 326 325 325 325 325 326 325 324 325 326 326 326 326 325 325 324 323 322 322 323 325 329 331 332 331 330 330 329 328 328 328 329 330 330 331 332 333 333 333 332 330 329 329 329 330
340 336 332 333 334 333 335 338 338 339 340 340 339 339 340 341 341 339 337 336 338 339 338 339 341 341 341 343 343 344 344 337 330 326 327 327 326 324 324 324 324 324 324 324 325 325 325 326 326 325 325 326 325 325 326 326 325 324 325 323 321 321 324 328 330 331 330 330 329 326 324 324 324 325 325 325 327 329 330 332 334 335 334 332 331 331 330
336 333 332 333 334 333 333 334 336 338 338 338 339 339 339 340 340 339 336 334 335 336 336 336 339 341 341 339 339 342 340 333 328 327 328 328 327 325 324 324 324 324 325 325 325 324 324 324 324 324 323 323 322 322 324 325 325 325 326 326 324 323 325 327 327 327 327 326 324 321 318 317 318 318 319 319 322 324 326 328 331 332 333 333 332 331 330
336 335 333 332 334 335 333 333 335 336 336 337 338 338 339 341 341 341 339 335 333 333 333 332 336 342 341 336 335 337 336 332 329 328 328 327 327 326 325 326 325 325 326 326 324 323 324 324 323 323 323 322 321 321 323 325 325 325 325 325 324 324 325 324 322 322 322 322 320 319 317 316 315 313 312 313 314 316 317 320 323 325 326 327 326 326 326
337 337 334 332 334 335 333 332 334 334 335 336 337 337 339 340 338 336 338 339 338 337 334 331 333 337 337 334 333 334 333 330 330 329 328 327 327 326 326 326 326 325 325 325 323 323 323 324 324 325 324 323 321 321 322 325 325 324 323 323 324 324 324 324 323 322 323 323 323 323 323 322 320 317 314 313 312 312 311 312 314 315 316 316 316 316 316
338 337 334 332 333 333 332 333 334 332 330 332 335 336 336 335 331 330 333 336 337 338 337 332 331 333 333 332 333 333 332 331 331 330 329 328 327 326 326 325 325 325 324 323 322 322 324 325 325 325 324 324 324 322 322 323 324 324 322 321 322 323 324 324 324 324 324 325 325 325 325 324 323 321 319 318 316 314 313 312 313 313 314 314 315 314 313
337 336 333 330 331 333 333 332 333 329 325 327 332 334 331 329 326 325 328 329 329 331 333 331 330 331 332 331 332 332 332 333 332 331 330 330 329 328 328 327 326 326 325 324 322 322 324 325 326 325 324 324 324 323 321 321 324 325 322 320 320 321 323 324 324 324 324 325 325 325 324 323 323 323 322 321 319 316 315 315 316 317 317 317 316 315 314
335 334 331 329 330 332 330 330 333 332 326 325 328 329 328 328 327 325 326 326 325 326 327 326 327 329 330 331 332 332 331 333 333 332 332 331 331 330 330 329 328 328 327 326 324 323 322 323 324 326 325 323 323 323 321 320 323 324 323 321 320 321 322 322 322 322 323 324 324 324 323 323 323 324 323 322 321 320 317 316 316 317 317 317 315 314 314
332 330 330 330 331 331 330 331 333 330 325 323 323 324 326 328 326 324 325 325 325 325 325 326 327 326 326 327 329 330 331 332 332 332 332 332 332 332 331 331 331 330 329 328 327 326 324 322 321 322 323 323 323 323 322 321 322 324 323 322 322 321 321 321 321 321 321 322 322 322 323 323 324 325 324 323 322 322 320 319 317 317 317 316 315 314 314
334 331 330 330 331 331 330 329 327 325 324 323 322 321 324 326 325 326 328 328 325 323 324 325 325 324 323 325 326 326 327 328 328 328 330 331 332 332 332 331 332 331 331 330 329 328 327 325 322 321 322 322 323 323 323 321 321 322 323 323 322 322 323 323 322 321 321 321 321 320 321 322 322 323 323 323 323 322 321 320 319 317 317 317 316 315 314
339 337 335 332 328 327 326 324 324 325 325 322 320 320 322 325 326 329 329 327 324 323 323 323 322 322 323 324 324 324 324 323 323 323 324 325 327 328 328 328 328 328 329 330 330 328 328 326 324 324 323 323 324 324 323 322 320 320 320 318 318 321 324 323 322 322 321 319 318 319 320 321 321 321 320 321 322 323 322 321 319 317 317 317 316 315 314
336 335 335 332 327 326 326 326 327 330 327 321 318 318 319 320 324 327 324 320 319 321 322 320 320 321 321 321 322 322 321 321 320 319 319 320 321 321 324 326 327 327 327 328 328 328 328 327 326 325 325 325 325 324 323 323 321 320 319 318 317 319 322 322 322 321 318 314 313 315 317 319 320 320 319 318 320 322 322 322 320 318 317 317 316 315 315
333 332 332 332 330 329 331 331 331 331 328 322 321 323 322 322 326 328 325 319 317 317 318 318 318 319 319 319 319 320 319 319 319 318 318 318 318 318 319 323 326 327 327 327 327 327 328 327 327 326 326 326 325 324 324 323 322 321 321 321 320 319 320 321 320 318 316 315 315 316 317 319 319 318 318 318 318 319 321 322 320 318 318 318 317 316 316
333 332 332 333 332 330 331 331 329 328 328 326 326 326 324 323 325 327 326 322 317 316 316 318 317 317 317 318 317 317 317 317 318 318 318 318 317 318 319 322 325 327 327 327 326 326 326 327 327 327 326 326 325 324 324 324 323 321 320 321 322 321 320 320 319 318 318 318 318 317 318 318 318 317 317 317 317 318 320 321 320 318 318 317 316 314 313
333 333 332 333 332 330 329 328 327 326 329 328 324 321 319 318 319 320 320 318 316 316 316 317 317 317 317 317 317 317 316 316 316 317 317 316 317 318 319 321 324 325 325 324 323 323 323 325 326 326 326 325 325 324 323 323 323 321 320 321 322 322 320 319 319 319 319 318 318 317 317 318 317 317 317 316 316 317 318 319 319 319 317 315 313 312 311
330 331 330 330 329 327 327 328 329 328 328 325 320 316 316 317 317 316 316 316 316 317 316 316 316 316 316 316 317 316 316 316 316 316 316 317 317 317 317 317 319 320 321 322 322 322 322 322 323 324 325 324 324 324 324 323 322 322 321 321 321 321 321 320 319 318 318 317 317 316 317 317 317 317 316 316 315 316 317 318 318 317 315 313 311 310 310
324 325 325 324 323 322 322 324 326 325 325 324 320 316 315 316 316 316 316 316 316 316 316 316 316 316 316 316 316 316 315 315 315 315 315 316 316 317 316 316 316 316 317 319 320 322 323 323 323 324 324 324 323 323 323 323 323 322 321 321 320 320 320 318 315 314 315 316 316 316 316 316 316 316 316 315 315 314 315 315 315 314 313 311 310 310 309
324 325 323 320 319 320 319 319 319 318 318 318 317 315 315 316 316 316 316 315 315 315 315 315 315 315 315 315 314 314 314 314 314 314 314 314 315 315 315 316 316 316 316 317 319 322 323 322 322 323 323 323 323 323 322 322 322 322 321 321 320 320 318 315 312 311 312 314 316 316 316 315 315 315 315 315 314 313 313 313 313 313 312 311 310 309 309
323 322 320 317 317 317 316 316 316 315 315 315 315 316 316 316 316 315 315 315 315 315 314 314 314 314 314 314 314 313 313 313 313 313 314 314 314 314 315 315 316 316 317 318 318 319 319 319 319 319 319 320 320 321 321 322 322 321 321 320 320 320 319 315 312 312 313 315 316 316 316 315 315 314 314 314 313 312 312 312 312 312 312 310 309 309 308
321 319 318 317 316 316 315 315 315 316 316 316 316 316 315 315 315 315 314 313 313 313 313 313 313 312 313 313 313 313 313 312 312 312 312 312 312 313 314 315 315 316 317 318 317 317 316 316 316 315 315 316 317 317 318 320 321 321 321 320 319 319 319 317 314 314 315 316 316 316 316 315 314 314 314 313 312 312 311 310 311 311 311 310 309 308 307
319 318 317 316 315 315 315 316 316 316 316 316 315 315 315 314 314 313 313 312 312 312 312 312 312 312 313 313 312 312 312 312 311 311 312 312 312 312 313 314 314 315 317 317 316 315 314 314 314 313 312 312 314 315 315 317 319 320 320 319 319 318 318 316 315 314 314 314 315 315 314 314 313 313 312 311 311 310 309 308 308 308 308 308 307 306 306
317 317 316 315 315 315 316 316 316 316 315 315 315 314 313 313 312 312 312 312 311 311 311 311 311 312 312 312 312 312 312 312 312 312 313 313 312 312 313 313 315 316 316 316 315 313 312 311 312 312 311 310 312 313 314 315 317 318 318 318 317 317 316 315 314 313 313 313 313 314 314 314 313 311 310 309 309 309 308 307 307 306 306 306 306 305 305
316 316 316 316 316 316 315 315 315 314 314 314 313 313 312 312 312 312 311 311 311 311 311 311 311 312 312 312 312 312 312 313 313 313 313 312 312 313 312 313 314 315 314 313 312 312 311 311 311 311 310 310 311 313 314 315 316 318 318 318 317 316 315 314 313 313 313 313 313 314 314 313 311 310 309 308 308 307 307 307 306 306 305 305 305 304 304
316 316 316 316 315 315 315 314 314 313 312 312 312 312 312 312 311 311 311 311 312 311 312 312 312 313 313 313 312 312 312 312 312 312 312 312 312 312 312 313 313 313 313 312 312 312 312 311 311 310 311 311 313 314 316 316 317 317 317 316 315 315 315 314 314 313 313 313 314 314 313 311 310 309 308 307 307 306 306 306 305 304 304 304 304 303 303
316 316 315 315 315 315 314 313 312 312 312 312 312 311 311 311 311 312 312 312 312 312 312 312 312 312 312 312 312 312 312 312 311 311 311 312 312 312 313 313 313 313 312 313 313 313 313 312 312 312 313 314 314 316 316 316 317 317 316 314 313 312 312 312 312 311 312 312 312 312 311 310 309 308 307 306 305 305 305 305 304 304 303 303 303 302 302
316 316 316 315 315 314 313 312 312 312 311 311 311 311 311 311 312 312 312 312 311 311 311 311 311 311 312 312 311 311 311 311 311 312 312 312 312 312 312 312 313 313 313 313 313 313 313 313 313 313 314 314 315 315 315 315 316 315 312 310 309 309 309 309 309 309 309 309 309 309 308 308 308 307 306 305 304 304 304 304 303 303 302 302 302 301 301
316 316 316 314 313 312 312 312 312 311 311 311 311 311 312 312 312 311 311 311 311 310 310 310 310 311 311 311 311 311 311 311 311 312 312 312 311 311 311 311 311 312 312 312 311 312 312 312 312 313 313 313 313 312 312 312 312 311 309 307 308 308 308 308 308 308 307 307 307 306 306 305 305 304 304 304 303 303 303 303 302 302 301 301 301 300 300
315 315 314 313 312 312 312 312 311 311 311 311 311 311 312 311 311 310 310 310 310 310 309 309 310 310 310 310 310 310 311 311 311 311 311 311 310 310 310 310 310 310 310 310 310 311 311 311 311 311 311 310 309 309 308 308 308 308 308 308 308 308 307 306 306 306 305 305 304 304 303 303 303 303 303 303 302 302 302 301 301 301 300 300 300 300 299
314 313 311 311 311 311 311 311 311 310 311 311 311 311 311 310 310 310 310 309 309 309 309 309 309 310 310 310 310 310 310 311 310 310 310 309 309 308 308 308 308 308 308 308 309 309 309 309 309 309 308 308 307 306 306 306 306 306 307 307 307 307 306 305 304 304 303 303 303 303 302 302 302 302 302 301 301 300 300 300 300 300 299 299 299 299 298
312 311 311 311 311 310 310 310 310 310 311 311 311 310 310 310 310 310 309 309 309 309 309 309 309 309 309 309 310 310 310 310 309 309 309 308 308 307 307 307 306 306 307 307 307 307 307 307 307 306 306 306 305 304 304 305 305 305 306 306 305 305 304 304 303 303 303 303 303 302 302 301 301 301 301 300 300 299 299 299 299 299 298 298 298 298 298
312 311 311 310 310 310 310 310 311 311 311 311 311 310 310 310 310 309 309 309 309 308 309 309 309 309 309 309 309 309 308 309 309 308 307 307 306 306 306 306 306 305 305 305 305 306 306 306 305 305 304 304 304 303 303 304 304 305 305 305 304 304 304 303 303 302 302 302 302 301 301 300 300 300 300 300 299 299 299 299 298 298 298 298 298 298 298
312 311 311 310 310 310 310 310 310 311 311 311 311 311 310 310 309 309 309 308 308 308 308 308 308 308 308 308 308 308 308 308 307 307 306 306 306 306 305 305 305 304 303 302 302 303 304 304 304 303 303 302 303 303 303 303 303 303 303 303 303 303 302 302 302 302 301 301 301 301 300 300 300 300 299 299 299 299 298 298 298 298 298 297 297 297 297
311 311 311 310 310 310 310 310 310 311 311 311 310 310 310 310 309 309 308 308 308 308 308 308 308 308 308 307 307 307 307 307 306 306 306 305 305 306 305 305 305 304 302 301 300 300 301 301 302 302 302 302 302 302 302 302 302 301 301 301 301 301 301 301 300 300 300 300 300 300 300 300 299 299 299 299 299 298 298 298 298 298 298 298 297 297 297
311 311 311 310 310 310 310 310 310 310 310 310 310 309 309 310 309 308 307 307 308 308 308 308 307 307 306 306 306 306 306 306 305 305 304 304 304 304 304 303 303 303 302 300 299 299 299 300 301 302 302 302 302 302 302 302 302 302 302 302 301 301 300 300 300 300 299 299 299 299 299 299 299 299 298 298 298 298 298 298 298 297 297 297 297 297 297
Wind_Speed
1 7 8 4 4 5 7 9 10 11 11 11 9 6 4 3 3 3 1 10 10 8 11 12 9 6 4 6 6 5 4 4 4 6 8 8 7 6 5 6 6 6 5 6 8 12 17 17 15 18 20 15 12 11 8 6 7 14 22 26 26 24 24 23 21 22 22 22 22 21 22 23 22 20 20 23 27 27 25 24 24 24 24 23 22 22 21
5 5 12 9 4 4 7 10 10 9 10 11 9 7 7 5 3 2 4 13 11 7 9 12 10 6 5 6 6 6 6 5 5 6 8 7 7 7 6 6 7 7 7 8 11 14 15 16 18 19 17 13 12 11 10 7 4 3 5 11 14 16 19 20 20 21 22 22 19 16 16 19 18 16 15 17 21 24 25 25 25 25 25 24 23 22 22
5 4 11 11 7 6 8 9 9 9 10 11 11 10 9 6 4 5 7 10 7 6 8 9 8 6 6 7 7 7 7 6 6 6 5 6 7 8 7 6 7 8 7 9 11 14 15 18 21 20 17 17 18 17 17 15 12 10 9 9 8 7 7 11 16 20 22 21 18 14 13 16 17 15 14 14 15 17 19 22 23 25 25 24 23 22 21
3 3 6 9 8 7 10 9 9 9 9 8 8 7 8 6 6 6 9 8 5 6 6 7 8 7 8 8 7 6 6 5 6 5 4 5 6 7 7 5 6 6 6 7 10 12 15 18 21 22 22 21 22 23 22 17 17 18 17 15 14 11 7 6 9 13 15 16 15 14 13 14 14 13 13 13 13 13 15 17 18 20 21 22 22 22 21
3 5 1 6 5 5 6 5 6 5 6 8 7 7 9 8 5 4 5 3 3 5 4 5 7 9 9 8 6 5 4 5 6 5 5 5 4 4 5 5 5 5 5 6 8 9 11 14 15 18 21 21 20 21 21 18 18 19 17 15 18 19 15 11 9 6 6 7 8 8 8 9 9 9 9 9 10 11 12 13 14 15 16 19 20 21 20
3 6 3 3 3 3 1 4 5 2 6 10 10 7 8 7 4 3 3 2 2 3 4 6 6 8 9 8 6 5 4 3 5 6 6 6 4 3 3 5 6 7 9 11 12 12 11 10 11 13 16 18 17 15 15 15 17 18 15 12 13 15 14 14 14 10 8 7 6 7 6 5 6 7 7 7 8 9 10 11 12 13 14 16 18 18 18
1 3 4 4 2 2 4 5 3 4 9 11 11 8 7 7 5 4 4 4 3 4 6 7 8 7 8 8 9 8 6 4 5 6 6 6 6 5 5 5 5 7 12 14 14 15 14 12 12 12 12 14 13 11 11 12 14 17 16 13 11 10 10 11 13 13 13 12 13 15 13 10 9 8 8 8 8 8 9 10 12 13 14 15 16 17 17
0 3 4 2 2 2 2 3 2 2 5 6 8 8 8 7 5 3 3 4 4 5 6 7 7 6 6 7 9 9 8 7 7 7 6 6 7 6 6 5 3 3 7 12 15 17 17 16 15 13 12 13 13 13 13 13 14 15 14 13 12 10 9 8 8 10 11 11 11 12 12 11 8 5 5 6 7 9 9 10 12 12 12 13 13 14 16
2 2 1 0 1 3 3 2 1 1 1 2 4 4 4 6 5 4 3 2 4 5 5 6 6 5 7 7 7 9 9 7 7 8 9 8 8 9 10 9 6 4 5 10 15 17 18 19 17 15 15 16 17 16 15 13 12 11 9 8 6 5 5 5 4 5 6 7 8 9 10 11 10 9 10 10 10 11 12 12 13 13 12 12 14 14 14
2 4 2 2 2 1 4 4 4 3 2 3 6 5 2 5 5 4 3 3 2 2 4 4 3 3 6 6 4 7 8 6 6 8 10 11 11 12 14 14 14 13 12 12 15 17 18 19 18 17 17 18 19 19 18 15 15 14 12 10 8 6 5 4 4 4 3 3 5 9 11 9 9 11 14 14 13 12 12 12 12 12 13 13 14 12 11
2 4 3 1 2 3 5 5 5 5 4 4 6 4 2 5 6 4 2 1 2 1 2 3 2 3 5 2 2 5 5 4 5 6 8 12 15 15 14 14 17 18 18 19 19 18 19 19 18 18 19 19 20 20 20 18 16 16 15 14 13 12 11 9 8 7 5 3 3 9 10 8 8 9 10 12 12 12 13 12 11 12 12 11 11 12 14
2 4 2 1 2 3 4 5 5 6 4 3 6 2 2 3 5 4 1 2 1 1 1 1 2 4 4 4 3 4 3 1 4 5 8 13 17 17 14 14 18 21 22 21 20 19 20 19 19 21 22 21 19 18 19 19 16 14 14 12 12 12 11 11 12 13 11 7 5 6 6 6 7 8 8 10 10 11 11 11 11 11 12 11 13 17 17
3 4 2 1 2 3 4 5 6 5 1 4 4 2 4 4 5 5 2 3 2 2 2 1 2 3 1 2 3 4 3 1 3 6 10 13 17 19 17 16 20 22 23 22 20 18 18 17 17 19 21 21 19 18 20 21 18 16 15 13 12 11 10 10 12 13 11 9 7 7 6 5 4 4 3 5 7 9 9 8 7 8 13 16 17 17 15
2 3 3 1 3 4 4 5 5 2 1 2 3 4 4 5 6 5 4 3 3 4 4 2 3 2 1 1 1 2 1 1 3 5 8 11 16 21 21 20 21 22 22 22 22 19 17 16 16 18 21 21 20 19 20 20 18 15 14 13 12 12 12 11 11 11 10 8 7 8 8 8 9 9 8 6 4 3 5 5 4 8 12 15 15 13 10
2 3 3 2 2 5 4 3 3 2 2 4 4 3 3 4 5 6 5 3 3 5 6 4 4 3 1 1 3 3 3 2 4 8 12 13 15 18 19 20 22 23 21 21 21 19 18 17 17 18 20 20 19 18 17 15 15 15 13 12 12 12 13 12 11 11 10 8 8 10 11 12 12 12 12 11 10 8 7 8 9 11 12 12 13 12 10
2 2 1 2 4 5 3 1 1 0 1 4 4 5 3 3 4 4 4 4 4 5 6 5 4 3 3 2 3 5 5 5 7 11 14 15 14 15 16 18 21 23 22 20 19 18 17 17 17 18 20 20 19 17 14 11 12 12 12 12 12 12 12 12 12 13 13 12 11 11 12 13 13 13 12 12 12 12 12 12 13 14 13 12 12 12 11
3 4 4 4 4 3 3 3 3 2 3 4 5 6 4 3 3 2 4 5 4 5 6 6 4 3 3 3 4 5 5 6 7 9 13 15 15 16 17 18 20 21 21 20 19 17 15 15 15 15 16 16 16 15 13 11 11 11 11 11 10 10 11 12 12 14 14 14 13 12 11 10 10 10 11 11 11 12 12 13 15 15 14 12 12 13 13
3 3 1 1 2 2 4 4 3 3 5 4 5 6 5 3 3 3 4 6 6 5 5 5 3 2 3 3 4 4 5 6 6 10 13 14 15 17 18 19 20 21 21 20 19 17 14 13 13 12 12 13 13 11 10 11 11 11 11 11 10 9 10 11 12 13 15 15 15 14 13 11 10 9 9 9 9 10 10 12 14 15 14 13 13 14 13
4 3 1 2 4 4 4 5 4 5 6 5 5 6 4 3 4 4 5 6 5 5 6 6 4 3 4 5 4 4 4 5 5 9 12 12 13 15 17 18 19 20 20 18 16 15 14 12 11 10 10 11 10 9 8 8 9 9 9 9 9 8 8 11 12 13 14 14 14 14 13 13 13 12 11 10 10 10 10 11 11 11 12 12 12 11 10
3 3 4 4 5 4 4 5 4 4 5 5 5 5 5 5 5 5 5 7 5 4 5 7 6 5 4 5 5 4 4 5 6 9 11 12 13 14 16 18 19 19 20 18 16 15 14 12 10 10 10 9 7 6 7 6 6 7 7 7 6 6 8 12 15 14 14 13 13 12 11 11 12 13 12 12 12 13 12 11 10 9 9 9 8 7 7
4 3 4 5 6 4 3 4 4 4 5 5 6 6 5 6 6 6 6 7 7 6 6 6 7 7 5 5 6 5 4 5 8 10 12 15 17 17 17 17 18 17 18 17 17 16 14 12 10 9 8 7 5 5 6 5 4 4 4 4 5 6 9 14 16 16 15 13 11 10 10 10 12 13 13 12 12 13 13 11 10 9 8 8 6 5 5
3 3 6 7 6 3 2 3 5 4 5 6 6 6 5 6 6 6 6 7 7 8 9 8 8 7 5 6 8 6 5 7 9 11 13 16 17 17 16 16 16 16 14 13 13 13 12 10 9 8 7 6 5 6 7 5 3 3 4 6 8 10 12 15 16 15 15 14 13 12 11 11 13 14 14 12 11 11 11 10 9 8 8 8 6 4 3
5 7 8 7 6 5 5 5 5 5 4 6 6 5 5 5 5 6 6 6 6 6 7 10 11 7 5 7 8 6 6 8 10 12 14 16 16 16 16 16 15 14 12 11 10 11 10 8 7 7 6 5 4 5 6 5 4 5 7 10 12 12 13 14 14 14 14 13 13 13 12 11 12 14 15 14 13 12 11 10 9 8 8 8 6 4 3
3 5 7 7 7 7 6 6 6 5 6 7 6 5 5 5 5 7 6 5 6 5 5 7 10 10 9 10 10 7 6 7 8 10 11 12 13 13 12 12 12 12 11 10 9 9 9 8 7 6 5 3 2 2 3 5 5 5 6 9 11 12 13 13 12 12 12 12 11 11 10 10 10 11 13 15 14 13 12 11 11 10 9 9 7 5 4
6 5 6 7 9 7 6 6 6 5 8 9 6 5 7 8 9 10 9 6 7 8 6 6 8 8 9 9 9 8 7 6 6 7 7 7 8 9 10 10 11 9 9 8 8 8 8 8 7 7 5 4 3 2 2 5 6 5 6 8 9 10 12 12 12 13 13 12 11 10 9 8 8 9 10 12 14 14 13 12 12 11 10 9 9 8 8
8 8 6 7 8 7 7 7 5 4 7 9 6 5 9 12 13 14 13 13 13 13 13 12 11 12 11 8 6 5 4 4 4 4 4 4 4 5 6 8 8 8 8 8 7 7 8 8 8 8 7 6 6 5 4 5 5 5 7 8 8 8 9 10 11 12 12 13 12 11 9 8 7 8 8 9 11 14 14 14 13 11 9 9 9 10 11
8 9 9 9 6 5 6 6 6 5 8 10 9 6 9 13 15 15 15 15 15 16 15 14 13 14 14 12 10 9 8 6 4 3 2 1 1 1 2 3 4 7 9 11 10 9 9 9 9 9 9 8 8 8 7 7 6 6 7 8 7 7 7 8 9 10 10 10 10 11 10 9 8 8 8 8 9 11 12 14 14 12 10 9 9 10 11
5 6 7 8 8 7 6 7 9 9 9 10 9 8 9 11 12 11 10 10 12 14 14 14 13 13 12 11 13 14 14 13 12 10 9 7 6 5 4 4 4 3 6 11 12 12 11 10 10 11 11 10 10 10 9 8 7 7 8 9 8 8 8 8 8 8 8 7 8 9 9 10 9 8 6 7 9 11 11 13 14 13 11 9 8 9 10
4 4 4 6 8 9 8 9 9 8 7 7 7 8 10 10 7 6 5 6 8 10 10 11 12 12 11 11 12 13 13 13 12 12 11 10 9 9 8 7 7 6 4 5 9 11 13 13 12 12 11 11 12 12 11 9 8 7 8 10 11 11 10 9 9 8 6 6 7 8 9 9 9 8 7 7 7 9 11 12 14 14 12 9 8 8 8
4 6 7 6 7 9 9 9 7 6 6 8 8 8 10 10 7 6 5 6 8 9 9 10 11 10 10 10 9 8 9 8 8 8 9 9 9 9 9 8 8 8 7 5 5 6 9 12 14 14 13 12 13 14 13 11 9 8 8 9 11 11 11 10 9 8 6 5 6 8 10 10 8 7 6 7 8 9 11 13 15 15 13 10 8 7 6
6 8 9 8 7 8 8 7 6 5 6 8 8 7 8 9 8 6 5 6 8 9 11 12 12 11 10 9 8 7 7 6 5 5 5 7 8 10 10 8 7 6 7 7 6 6 7 8 11 14 14 13 14 16 15 13 11 10 10 11 11 12 11 10 9 8 8 7 7 8 10 10 8 7 6 6 7 9 11 14 16 16 14 11 9 6 4
8 8 8 7 6 7 7 6 6 6 6 7 8 7 7 8 8 6 6 6 7 9 11 12 11 9 8 6 5 5 6 6 5 5 5 7 8 10 11 9 7 6 5 5 6 6 7 8 9 11 12 11 13 15 16 15 13 12 12 12 12 13 14 12 10 10 10 8 7 7 8 9 9 8 8 7 7 9 11 15 17 18 15 11 8 6 4
9 7 7 6 6 7 7 6 6 7 6 6 7 8 8 10 10 8 8 9 10 10 11 9 8 6 4 3 3 4 4 5 5 5 7 8 8 8 9 9 7 6 5 6 6 6 7 8 8 8 10 11 12 13 14 14 14 14 15 15 14 14 15 15 13 12 12 10 9 8 8 9 10 10 10 9 9 10 13 16 17 17 15 11 8 7 5
11 8 8 8 8 8 8 7 6 6 6 6 7 8 10 13 13 11 12 13 13 11 9 8 6 5 4 5 5 5 6 6 6 7 8 6 4 4 6 7 7 7 7 7 7 7 8 9 8 8 9 11 11 12 13 13 12 11 13 15 16 15 16 15 15 14 13 12 10 9 8 9 10 11 11 11 11 12 14 16 17 17 15 12 10 9 9
12 8 7 9 10 10 10 8 7 7 7 6 6 8 12 14 14 14 14 13 12 10 8 7 6 5 6 7 7 8 9 8 8 8 9 8 6 5 6 7 6 6 6 7 7 7 8 8 8 9 9 10 10 11 12 14 14 13 13 14 15 16 16 16 17 16 15 13 11 10 10 10 10 11 12 12 12 12 14 15 16 15 14 13 12 11 10
13 8 6 8 11 11 11 11 11 12 11 10 9 11 13 14 14 14 13 12 10 8 7 6 6 6 6 6 6 7 7 7 8 8 9 8 7 7 7 8 7 6 6 6 6 5 6 7 8 8 9 9 10 10 11 11 13 15 14 14 16 18 17 15 16 16 16 15 13 12 12 11 11 11 11 10 10 11 11 13 13 13 13 13 13 11 9
15 14 11 11 14 15 15 15 17 17 16 14 14 14 15 15 14 13 12 11 10 9 7 7 7 7 7 6 5 5 6 6 8 9 8 8 7 7 6 7 6 6 5 3 3 5 6 8 9 10 10 10 10 10 11 11 12 14 14 13 16 18 17 16 15 14 14 15 15 14 14 12 11 11 10 9 9 10 10 11 12 13 14 13 12 11 10
16 19 17 16 17 18 17 17 19 20 18 16 15 15 15 14 13 12 12 11 10 8 8 8 7 7 7 7 7 7 8 8 9 10 9 9 9 8 7 6 6 6 5 4 5 7 9 10 11 12 12 12 12 12 12 11 12 15 16 15 17 18 18 17 15 12 11 14 16 16 15 13 13 12 10 9 10 11 11 12 14 14 14 12 11 10 9
14 16 18 18 18 19 18 17 18 19 18 17 15 14 13 12 11 11 11 10 8 6 6 7 7 7 7 8 7 8 8 8 9 9 9 8 8 7 6 6 6 5 4 5 6 8 11 13 14 14 14 13 14 15 14 13 13 16 17 18 19 19 19 19 17 14 12 13 14 16 14 13 12 12 11 12 14 14 13 13 13 13 12 11 10 9 8
11 14 16 17 16 16 17 17 17 17 16 15 14 13 13 12 11 10 9 7 6 5 5 5 5 6 6 6 6 7 8 8 8 7 6 6 7 6 6 5 4 4 5 7 9 12 14 16 16 16 15 14 14 15 15 15 15 17 17 17 18 20 21 21 21 18 13 11 11 13 13 12 13 15 15 16 16 15 13 12 10 10 10 10 9 8 8
13 15 17 16 16 16 17 17 16 15 14 14 14 14 12 11 10 8 6 4 3 3 3 4 5 5 6 6 6 6 7 7 6 6 6 7 7 6 6 7 7 7 9 11 13 14 14 15 14 15 15 14 14 16 16 15 15 17 18 18 19 21 22 21 19 18 16 15 16 17 17 17 18 19 18 17 16 15 13 12 10 9 9 9 8 8 9
15 17 17 16 16 16 17 17 16 16 15 15 15 14 11 8 7 6 4 3 2 2 2 3 4 5 5 6 6 6 6 6 6 6 7 8 7 6 7 9 9 8 10 12 12 12 12 12 13 14 15 15 16 16 15 13 14 15 16 17 18 19 20 19 17 16 15 16 17 19 21 22 22 20 19 18 17 15 14 12 11 10 10 9 9 9 10
17 18 17 15 15 17 18 18 17 17 16 15 14 11 9 7 6 5 5 5 4 3 3 3 3 4 4 5 5 6 6 7 7 7 7 6 5 4 5 7 8 8 9 10 10 11 11 12 13 14 15 15 15 14 13 12 14 16 17 18 17 16 16 15 14 12 13 15 17 19 20 20 19 19 20 19 16 14 13 13 12 11 10 9 9 9 9
19 19 17 16 17 18 18 18 18 17 16 13 10 9 8 8 8 7 6 5 4 4 3 3 4 4 4 4 5 5 6 7 7 6 6 5 4 4 5 6 8 9 9 9 10 11 11 11 12 11 10 9 8 9 10 11 13 15 16 15 14 13 14 15 15 13 14 14 15 16 15 15 16 17 17 16 14 13 12 12 11 11 11 10 9 8 8
19 19 19 18 18 18 17 17 18 18 15 11 8 8 10 10 10 8 6 5 4 3 3 3 3 4 4 4 4 4 5 5 4 4 4 4 4 6 7 7 7 7 8 8 9 9 8 7 7 6 4 3 3 3 4 6 8 9 10 10 9 7 9 11 12 11 11 11 11 12 13 13 13 14 13 13 12 12 11 11 12 12 12 11 9 8 7
19 19 20 20 19 19 18 18 17 16 14 11 10 11 12 11 10 8 6 5 4 4 3 3 3 3 3 4 3 3 3 5 5 5 5 4 4 5 6 6 6 6 7 7 6 5 4 4 3 2 2 2 1 1 2 3 4 5 5 6 7 7 6 7 8 9 11 13 14 13 13 12 11 10 10 10 10 11 11 12 12 11 9 8 7 7 6
20 20 21 22 21 20 19 18 16 14 12 11 12 13 12 11 10 8 6 5 5 5 4 2 2 2 3 3 2 2 2 5 7 6 5 5 5 5 5 5 5 5 5 4 3 2 2 1 1 2 2 2 1 1 1 3 4 3 4 6 9 12 12 13 15 17 18 18 16 13 12 11 11 11 10 10 11 12 12 12 10 9 8 6 6 5 4
22 21 22 23 23 20 18 17 14 11 10 12 14 14 13 11 10 8 6 4 5 5 4 3 3 3 3 3 3 3 2 3 5 5 4 4 4 4 3 4 4 4 4 3 2 3 3 1 2 3 3 2 2 3 3 1 4 3 2 5 12 15 16 17 19 20 17 14 12 11 11 12 12 11 10 10 10 10 10 10 9 8 7 5 4 4 3
22 22 22 23 22 20 18 16 13 11 13 15 16 15 12 10 9 7 5 5 6 6 5 3 3 3 4 4 5 5 5 4 5 5 3 3 3 3 3 3 3 4 4 3 2 1 2 3 3 4 3 3 5 7 6 4 5 5 3 5 7 9 11 14 16 16 14 13 13 13 12 11 10 9 8 7 7 7 6 7 6 6 5 4 4 2 1
22 22 21 20 20 19 17 16 15 16 17 17 15 13 12 11 9 8 7 8 8 8 6 4 3 3 3 3 5 6 6 5 5 4 3 3 3 3 3 2 2 4 6 5 2 1 1 3 3 4 4 4 6 8 10 11 12 12 11 10 10 10 11 13 13 13 11 11 10 9 9 9 9 8 8 8 7 6 5 5 5 4 4 2 1 1 2
22 21 20 20 19 18 17 16 16 18 18 16 15 14 12 10 10 10 10 10 10 10 8 6 5 3 2 3 4 4 4 4 3 3 2 1 2 2 1 1 2 4 6 6 3 2 2 3 4 6 7 9 11 12 12 13 13 14 14 13 13 13 12 11 10 8 8 8 8 7 7 7 6 7 7 6 6 5 5 4 4 4 3 2 0 1 2
22 22 22 21 19 18 16 15 16 17 16 14 14 14 12 11 11 13 12 11 11 11 10 8 6 5 4 4 5 5 4 3 3 3 3 3 2 2 1 2 2 3 5 4 3 3 3 4 7 7 8 11 12 11 10 9 8 8 8 8 8 8 7 5 4 5 6 7 8 8 7 6 5 5 5 5 5 4 3 3 3 2 2 1 2 3 5
Wind_Direction
10 121 109 68 40 30 15 24 32 27 21 23 35 32 359 49 123 235 23 73 65 20 8 3 351 359 40 55 54 52 60 78 94 92 84 84 96 101 90 102 115 113 106 93 83 75 61 50 55 61 60 60 64 72 86 109 153 174 180 184 187 191 195 198 200 199 199 201 206 212 216 216 216 218 220 223 225 225 225 226 226 225 224 224 225 225 224
347 76 110 104 69 37 30 29 27 28 30 29 31 20 4 33 55 326 65 85 77 39 14 5 1 16 54 60 51 40 35 37 52 76 89 97 109 117 113 122 129 123 122 124 125 123 106 85 81 82 86 104 117 121 134 135 92 76 151 172 175 184 194 200 203 204 201 200 200 199 199 202 205 206 201 203 211 217 221 225 226 225 224 224 226 227 226
345 49 107 113 101 79 52 31 23 30 33 28 27 19 3 2 0 1 41 69 63 28 14 7 4 23 56 55 41 28 23 23 35 56 88 103 110 119 119 126 141 139 139 145 143 140 132 116 113 119 129 136 142 152 156 151 145 148 165 170 150 144 175 196 203 202 197 195 197 198 193 188 188 189 185 181 183 191 201 209 215 218 219 221 224 226 226
326 356 109 141 142 89 51 24 13 27 41 37 29 28 21 357 321 350 36 51 16 346 357 7 0 10 45 52 35 28 32 40 51 59 87 100 107 127 128 120 134 135 133 148 151 146 139 130 130 140 148 149 156 162 158 146 140 150 162 170 167 160 151 167 195 198 192 192 200 206 202 193 188 188 186 182 177 176 180 188 197 205 211 215 220 223 224
298 308 105 157 153 69 35 352 340 7 59 61 46 34 27 9 332 355 49 50 343 340 10 37 16 8 24 31 16 16 40 65 75 76 95 116 122 140 138 118 109 103 85 90 106 117 123 125 131 144 152 155 160 164 160 152 149 153 155 160 171 176 176 181 196 212 209 193 192 201 202 196 194 194 195 195 192 187 185 185 189 196 203 210 214 218 220
270 292 337 82 76 66 219 279 315 31 87 74 63 43 20 10 3 31 70 69 26 28 47 67 57 28 20 16 4 5 23 58 87 82 77 87 79 46 71 97 97 95 90 85 87 100 114 119 123 137 150 156 159 157 153 149 152 158 161 164 169 169 173 186 197 219 251 247 225 230 230 211 205 208 210 213 210 207 203 198 195 195 198 201 203 207 211
237 310 19 54 65 150 207 264 303 105 106 92 80 59 27 18 16 16 23 23 38 62 64 78 82 54 26 16 12 16 25 40 81 95 88 86 82 63 60 70 71 93 108 107 102 111 126 132 127 129 139 149 150 142 134 130 132 142 157 180 196 178 162 174 190 210 237 246 237 236 237 232 225 218 213 213 216 218 212 204 203 203 201 199 199 202 206
64 16 48 107 202 238 243 270 291 97 102 92 73 46 14 0 354 347 357 8 34 62 68 78 78 53 29 20 8 9 28 45 61 78 85 84 83 79 81 83 60 71 116 121 115 113 119 120 118 120 125 132 131 121 116 113 108 116 138 167 194 189 160 153 170 191 213 225 224 224 228 229 230 226 219 219 218 220 215 203 200 200 197 195 195 197 203
116 90 65 148 300 309 307 284 237 216 179 128 102 74 350 331 331 329 328 356 46 66 69 72 72 57 47 39 2 349 11 40 60 66 71 77 79 77 82 90 91 86 109 118 114 114 114 111 109 110 113 117 116 111 111 113 111 110 117 136 168 184 163 157 170 181 199 210 205 204 214 224 236 243 244 243 235 226 222 211 201 197 191 185 181 185 196
106 99 63 11 45 292 270 257 247 257 243 169 132 109 348 311 314 338 353 348 13 90 103 94 94 79 64 54 347 331 352 25 61 71 75 77 76 73 76 80 81 82 86 89 92 99 102 101 106 113 116 118 116 112 113 115 116 118 117 118 121 114 107 123 153 164 175 197 212 224 226 223 225 230 233 236 234 224 219 216 207 197 189 182 178 182 198
92 101 107 147 169 215 248 256 269 285 258 176 122 81 347 294 303 333 32 9 321 331 82 78 98 102 91 90 293 305 322 11 56 78 82 77 76 74 75 82 85 84 84 83 87 93 93 94 104 113 116 116 112 112 117 123 124 124 124 122 112 99 94 101 110 110 98 95 212 232 231 215 202 207 214 221 225 222 222 223 216 203 197 194 200 212 224
130 105 115 194 215 234 254 271 283 280 258 129 94 59 270 253 283 291 159 143 281 299 56 69 103 108 123 159 206 254 260 33 63 88 95 91 92 89 83 87 91 89 87 87 88 92 95 99 109 117 119 116 110 109 113 117 120 123 123 122 113 103 100 99 94 89 88 100 145 185 194 188 189 197 204 212 220 223 224 226 221 207 194 190 201 213 221
123 105 113 243 262 245 258 283 287 283 315 75 92 193 200 181 218 234 169 138 190 173 158 179 114 87 95 176 199 226 222 150 101 110 110 105 103 102 102 101 98 98 98 97 94 95 103 111 117 120 120 115 109 105 104 105 110 116 119 120 119 115 110 102 96 94 99 110 119 122 127 133 137 149 184 208 216 217 218 222 212 178 159 159 173 188 199
114 117 112 45 287 264 266 280 286 301 74 126 197 198 160 149 174 178 137 125 137 115 105 103 96 85 318 287 217 223 225 192 175 139 119 107 102 106 112 112 108 106 104 102 102 105 114 125 127 125 120 113 106 101 97 98 105 112 118 120 117 112 111 111 112 114 119 122 107 96 99 100 94 91 89 90 110 170 196 200 175 142 134 136 145 153 162
94 72 67 74 242 265 282 288 302 353 111 181 184 139 119 128 142 142 130 130 130 114 107 106 108 127 174 173 130 110 79 85 109 109 110 106 102 105 109 107 107 107 104 103 108 113 120 126 125 120 112 104 101 99 96 101 106 109 116 125 122 117 116 118 120 118 120 123 108 94 93 94 92 94 97 98 100 108 124 134 130 124 121 121 123 123 123
110 107 144 183 215 259 301 90 159 3 137 165 142 113 103 95 106 126 130 127 129 123 120 123 127 125 121 104 89 74 55 50 79 101 110 110 106 105 104 104 106 106 102 102 104 107 111 114 113 113 108 101 97 95 99 114 122 119 124 130 128 126 124 124 121 113 110 114 112 101 96 95 93 92 93 98 104 109 115 119 118 117 119 120 120 117 112
138 158 190 204 212 269 353 60 114 95 74 94 110 109 105 94 87 112 131 134 140 134 126 126 123 110 103 80 53 50 45 36 57 96 111 112 111 109 107 108 108 105 103 103 101 99 101 101 101 104 107 105 98 90 96 114 123 126 132 134 132 134 132 127 121 115 111 112 114 110 103 98 98 97 94 93 97 102 107 109 110 112 115 115 114 111 109
81 85 79 150 128 72 39 50 60 69 69 75 94 99 100 108 99 96 119 139 154 151 136 127 123 135 135 97 54 46 48 37 56 96 108 111 113 111 108 109 110 108 105 103 100 98 95 94 96 97 102 106 101 94 101 112 113 116 121 122 126 136 143 140 131 125 121 117 114 112 105 98 99 104 103 100 100 104 107 105 104 106 110 112 113 111 108
93 86 216 178 125 110 96 80 62 60 63 66 90 101 109 114 98 86 101 123 140 147 141 139 147 162 145 110 71 55 61 51 64 93 101 108 117 118 117 116 115 112 108 103 101 100 96 93 95 96 99 103 102 103 108 109 111 114 111 111 117 126 144 157 153 141 133 126 118 113 106 100 100 100 100 101 102 105 113 116 113 110 109 111 113 112 108
96 137 193 163 107 93 97 93 87 84 81 79 88 98 103 102 91 80 87 99 105 114 126 131 131 128 126 119 106 92 84 81 91 99 101 107 118 125 126 124 121 116 112 109 109 110 109 109 109 108 110 110 109 117 119 112 117 119 106 104 113 112 131 152 155 148 141 135 125 117 109 105 104 100 95 94 93 94 100 112 124 129 129 127 126 126 123
78 106 146 118 86 54 50 84 103 111 106 102 96 92 91 91 86 75 73 80 90 102 112 119 114 108 114 120 114 107 93 86 96 103 105 110 121 131 133 132 129 124 120 120 121 120 121 126 125 122 123 120 121 136 139 134 135 123 99 96 107 111 129 144 147 144 141 137 130 124 118 112 108 102 95 92 91 90 89 93 103 116 124 125 126 132 134
143 179 167 143 124 124 180 154 139 132 124 113 103 99 97 96 96 94 85 80 84 93 105 117 118 114 125 126 114 109 107 103 102 104 106 109 118 129 134 135 134 132 131 134 134 130 132 137 137 134 130 124 130 147 152 151 138 116 116 120 117 118 129 139 140 135 131 126 120 117 115 112 109 105 101 97 96 96 94 92 94 99 102 100 96 89 94
189 192 182 161 134 148 191 178 150 148 137 114 108 118 122 117 116 113 104 97 89 81 92 112 118 117 123 127 122 117 116 114 108 107 111 115 121 129 134 136 136 138 143 148 147 145 146 146 145 146 141 129 131 145 155 159 137 121 132 134 126 123 129 136 138 135 129 124 119 115 113 113 112 110 108 104 99 97 97 97 97 95 95 95 92 82 74
149 171 181 162 131 143 176 164 144 145 133 117 114 120 119 113 107 103 102 114 121 109 89 98 109 114 115 118 122 127 134 136 125 116 117 122 129 138 143 144 145 149 155 159 157 157 160 161 162 162 160 159 152 140 162 179 165 147 147 143 134 131 133 136 139 141 139 138 134 129 127 126 124 121 117 114 109 104 101 99 97 91 86 84 81 76 67
137 162 174 144 126 137 151 135 123 126 121 114 111 117 119 110 99 94 92 92 105 110 98 82 93 106 114 122 133 136 135 142 145 141 135 133 140 152 161 164 167 172 176 179 178 174 174 175 177 178 181 192 204 206 205 202 193 183 176 164 152 149 149 149 150 150 150 149 149 149 148 146 147 144 134 128 126 123 117 112 105 98 89 79 71 65 62
135 143 128 106 109 126 128 112 105 122 119 111 107 123 124 114 103 98 95 93 94 96 94 87 82 82 85 99 128 141 135 140 151 157 155 147 153 171 177 183 193 201 204 207 207 204 203 198 194 197 201 208 218 226 223 217 212 201 187 179 172 167 167 166 163 160 157 153 151 150 149 154 167 176 168 152 142 139 137 132 123 112 101 89 81 79 74
130 137 123 108 110 137 146 141 149 156 134 122 126 139 131 121 115 108 101 96 94 91 89 89 86 78 73 74 80 84 83 87 92 86 66 77 105 243 244 238 234 224 220 222 223 223 224 221 216 217 221 222 226 231 231 233 230 209 189 184 179 172 174 176 173 169 168 167 163 157 149 144 152 173 189 187 173 162 156 148 138 130 118 106 98 94 82
129 143 135 135 152 172 172 154 146 143 140 142 151 154 137 125 117 107 99 97 98 95 91 88 83 74 66 66 73 75 72 67 62 53 40 36 35 20 356 337 322 281 240 233 231 226 225 227 228 230 232 233 234 235 234 235 232 216 205 200 189 177 178 184 184 180 180 184 186 182 168 150 139 143 161 182 191 189 178 161 150 142 134 125 117 108 90
124 125 112 128 146 146 137 130 128 126 127 133 134 129 125 118 101 86 95 107 105 99 95 94 92 85 79 77 78 77 75 70 61 50 39 31 26 17 6 355 346 338 302 254 242 234 228 229 232 234 235 236 236 236 236 237 235 224 215 209 200 192 187 188 192 199 205 209 209 202 187 167 149 139 131 134 159 180 183 175 165 154 145 140 134 120 99
130 120 113 120 130 129 127 131 131 123 114 109 102 105 115 116 105 96 98 98 97 94 90 91 94 93 93 96 93 86 85 78 58 41 29 18 11 4 358 352 347 343 338 326 306 274 249 240 239 241 244 241 236 234 235 238 239 231 215 205 200 195 191 191 197 203 205 198 193 189 181 169 156 149 141 132 139 158 172 178 172 160 151 152 149 132 106
122 117 121 127 130 129 132 137 133 127 122 113 105 101 103 105 107 111 104 95 97 95 88 85 86 84 87 93 90 85 85 76 53 37 17 356 346 342 338 330 321 326 334 334 330 321 297 269 254 249 248 243 236 234 236 237 239 233 223 216 213 206 200 200 200 190 176 163 158 166 173 169 159 154 154 145 140 150 164 171 169 163 160 163 158 139 116
119 119 126 130 126 126 134 140 134 133 129 118 115 120 120 119 123 128 124 115 106 97 92 93 95 92 86 78 64 58 54 42 36 36 17 358 351 351 351 338 311 299 311 323 324 322 311 295 277 264 255 243 231 229 232 236 238 232 226 224 222 213 207 206 202 188 178 174 176 179 179 177 172 167 161 151 143 143 151 159 164 165 165 161 148 126 105
132 142 151 152 142 138 148 155 147 144 142 132 133 137 131 124 125 126 120 110 97 85 83 85 86 83 75 59 38 27 17 11 9 6 1 360 2 12 17 11 350 331 322 317 322 326 319 312 306 292 275 261 245 235 233 234 234 232 229 226 221 213 209 210 209 201 193 193 198 197 189 182 178 170 158 147 140 138 144 152 161 164 162 153 140 126 108
157 170 174 171 164 157 156 160 157 146 131 118 120 118 110 109 110 108 102 96 88 80 77 77 72 63 52 43 36 30 22 9 351 341 339 339 346 5 8 3 356 350 342 333 330 332 330 327 326 317 300 284 267 250 239 233 230 230 229 223 217 216 216 216 214 209 202 197 196 191 179 170 167 163 156 147 138 136 142 151 158 160 158 151 139 126 113
161 162 154 156 165 166 158 154 154 146 127 112 109 107 106 108 107 100 95 92 88 83 81 76 66 55 48 43 38 35 32 23 9 358 349 340 334 333 334 334 334 338 343 342 334 329 326 324 321 316 308 298 283 266 254 245 238 236 236 228 223 224 226 226 225 221 211 203 199 194 185 172 162 159 157 149 139 136 142 151 158 161 156 147 137 128 120
151 139 116 126 140 143 136 132 135 134 127 124 122 112 107 107 104 98 94 90 83 76 70 60 49 39 32 29 22 19 16 9 1 357 350 343 338 332 328 328 327 325 332 338 334 326 323 323 320 314 307 302 294 284 275 262 245 238 238 238 235 233 230 229 230 224 213 205 202 198 191 180 168 164 163 156 147 143 144 148 156 161 155 144 137 137 136
141 133 121 117 119 118 115 117 121 121 117 117 118 113 108 105 102 98 93 85 76 69 62 56 50 39 27 16 2 355 1 9 12 11 8 5 3 354 339 328 322 319 320 323 323 325 324 321 319 314 307 302 299 293 288 276 257 244 239 234 233 232 227 225 228 229 221 214 206 195 186 179 172 170 170 163 153 146 140 138 145 152 152 147 144 146 146
128 129 127 124 118 115 113 117 122 121 116 112 112 111 110 108 104 98 90 80 72 67 60 54 49 39 32 30 26 21 24 28 26 20 14 12 10 7 2 351 336 324 314 303 312 323 322 317 314 312 306 299 294 291 288 277 261 253 247 236 228 223 217 215 221 223 210 197 190 186 184 182 179 177 173 165 157 149 141 136 138 143 147 149 150 152 154
119 122 123 121 118 115 115 118 122 123 122 118 116 115 114 111 107 100 91 79 68 57 46 41 38 33 30 30 26 21 17 13 6 2 1 3 2 360 357 348 332 314 300 297 306 313 313 311 310 308 303 297 290 286 283 273 260 254 249 238 225 214 204 198 195 191 186 182 181 182 185 185 183 178 169 160 157 153 146 139 136 138 142 145 145 147 154
123 125 125 123 120 118 116 116 118 120 122 122 122 121 119 114 109 103 94 79 59 37 22 16 12 12 14 12 4 359 358 359 0 4 9 7 2 357 350 336 312 284 281 293 300 303 305 307 306 302 298 295 289 284 281 273 258 248 242 233 218 204 192 185 182 187 205 225 221 211 207 200 186 175 165 158 156 153 150 148 142 137 139 142 142 144 154
131 132 130 127 126 125 123 122 122 121 121 123 123 121 120 117 112 106 99 82 54 19 359 353 349 351 354 350 344 347 360 9 16 20 14 3 356 345 327 315 303 289 288 295 300 301 300 301 299 297 295 293 287 283 281 273 257 245 239 231 218 206 198 194 192 201 220 236 233 224 215 198 180 170 165 161 160 158 156 155 152 146 145 146 141 141 149
137 137 134 131 131 131 130 129 127 123 123 126 127 126 123 121 114 108 100 87 63 28 10 10 5 0 0 359 360 7 17 18 13 4 354 352 351 330 308 306 310 305 299 299 302 301 298 296 294 293 294 295 292 287 279 266 252 241 231 222 216 211 207 205 206 212 221 224 220 210 199 185 175 170 168 164 161 159 158 156 154 151 150 151 147 145 147
141 140 136 135 137 137 134 132 130 128 127 130 131 129 127 124 118 114 110 99 83 67 54 39 17 1 0 6 12 14 7 357 351 343 336 340 348 330 306 309 316 316 309 306 305 303 301 300 299 298 300 300 295 284 271 257 248 237 223 210 203 196 189 187 189 193 196 195 191 186 181 175 170 167 164 158 152 150 151 152 151 150 151 153 154 155 152
143 142 140 139 141 140 137 133 130 129 130 132 132 130 129 129 127 126 123 113 94 76 63 49 32 23 21 19 16 10 1 352 350 346 338 334 334 332 326 324 321 317 315 315 313 308 304 303 304 306 307 301 285 266 252 240 232 222 204 184 167 158 157 158 156 150 146 147 152 156 160 161 159 156 154 151 147 147 149 150 151 151 152 150 149 150 149
143 145 145 143 141 140 138 135 131 130 133 137 138 137 135 132 129 127 123 114 103 92 73 51 38 33 24 7 358 3 6 7 11 14 11 2 348 341 343 343 334 327 326 327 323 317 310 305 304 303 299 289 273 254 232 219 216 207 183 161 152 151 150 149 150 147 138 132 132 135 138 141 144 145 146 145 143 144 147 150 152 153 152 149 145 143 143
142 143 143 139 135 134 135 134 133 135 137 135 132 133 134 129 124 123 123 118 115 113 96 68 49 33 6 346 341 7 42 63 65 50 38 39 28 5 358 359 353 346 343 341 336 332 325 311 298 291 295 300 307 141 158 180 201 215 216 212 213 207 175 150 150 152 143 137 135 132 127 125 129 135 140 142 141 140 144 149 151 152 153 155 151 145 144
139 137 137 135 134 134 135 136 138 142 143 136 131 132 133 129 125 127 128 123 121 120 108 77 44 21 0 350 349 8 56 83 83 68 48 42 36 21 16 21 15 4 3 12 30 59 75 72 40 3 340 323 308 298 240 192 182 199 241 227 199 179 163 154 154 150 143 136 132 127 123 126 131 134 134 133 133 136 140 142 141 141 144 151 152 148 145
142 140 138 139 140 140 141 142 144 147 148 144 139 137 137 136 135 134 130 123 123 122 109 78 49 33 25 27 33 27 32 84 103 97 67 31 19 25 44 49 27 9 13 37 72 96 98 65 352 339 333 329 355 4 350 204 167 157 183 182 167 157 152 152 151 149 145 144 142 137 133 134 135 135 131 127 126 129 133 135 135 135 138 146 154 151 140
147 146 144 145 146 145 146 147 145 143 145 145 143 142 144 145 144 145 146 143 140 136 127 108 87 65 45 44 55 59 58 80 114 119 97 47 34 51 60 46 21 9 9 8 10 51 62 42 16 6 8 29 49 50 53 83 121 128 148 169 158 145 144 150 150 146 143 143 143 140 136 131 129 132 137 138 136 135 134 133 132 134 136 141 150 162 177
147 146 147 148 149 151 154 153 149 147 150 152 150 150 152 152 155 165 173 166 154 148 142 132 121 101 75 72 81 84 83 89 101 102 86 70 74 70 47 29 25 20 13 9 6 51 68 65 69 66 61 69 79 84 91 102 108 111 117 124 121 118 125 134 138 138 138 139 141 144 144 136 128 127 130 130 130 133 135 134 135 140 147 152 179 273 261
147 149 153 155 157 160 164 164 160 159 161 160 159 161 166 170 175 183 186 177 166 161 156 147 146 158 157 127 109 107 109 113 116 108 94 110 126 106 45 38 48 23 16 24 52 68 55 87 113 109 98 97 100 102 106 109 106 102 101 102 102 103 108 112 115 119 125 129 137 149 156 150 140 138 141 144 147 149 151 157 165 167 166 167 236 275 258
151 154 156 157 158 159 160 161 162 164 165 167 170 174 178 180 184 189 191 188 183 181 176 165 161 174 177 152 128 123 120 114 109 107 103 107 122 127 104 94 67 20 17 36 65 46 51 111 132 121 104 103 107 107 109 114 110 99 95 92 86 83 87 99 123 140 140 138 143 152 157 159 159 155 154 159 166 169 170 183 195 195 192 201 225 235 241